{"data":{"norad_id":50821,"intl_designator":"2022-001U","name":"STARLINK-3346","alt_names":[],"object_type":"PAYLOAD","status":"ACTIVE","operator":null,"country":"US","launch_date":"2022-01-06","launch_site_code":"AFETR","launch_vehicle":null,"mission":null,"orbit_class":"UNKNOWN","rcs_meters":null,"size_class":null,"mass_kg":null,"dimensions":null,"purposes":["comms"],"wikipedia_slug":null,"has_3d_model":false,"image_url":null,"decayed_at":null,"tle_current":{"epoch":"2026-05-24T20:01:52.714560Z","epoch_age_seconds":85459,"freshness":"FRESH","line1":"1 50821U 22001U   26144.83463790 -.00000204  00000+0  52592-5 0  9992","line2":"2 50821  53.2147 187.1744 0001672  89.4701 270.6482 15.08833540241909","mean_motion":15.0883354,"eccentricity":0.0001672,"inclination_deg":53.2147,"raan_deg":187.1744,"arg_perigee_deg":89.4701,"mean_anomaly_deg":270.6482,"bstar":5.2592e-6,"rev_number":24190,"period_min":95.437963289178,"perigee_km":538.60646176767,"apogee_km":540.91980757271,"semimajor_km":6917.9001346702,"source":"CELESTRAK","updated_at":"2026-05-25T13:38:16.877600Z"}}}